Location: Observatoire de l'Aigle
(47.0607°N, 71.3152°W)
Time: 06:09:04
(UTC-04:00)

Amateur Radio Satellites - All Passes

Search period start: 23 October 2014 05:39
Search period end: 24 October 2014 05:39
Location: Observatoire de l'Aigle, 47.0607°N, 71.3152°W

Satellite Date Start Highest point End Downlink Frequencies (MHz)
Time Altitude Azimuth
OPAL 23 Oct 05:40:40 05:45:24 36° 261° (W) 05:50:07 ?
STRAND 1 23 Oct 05:43:13 05:47:41 31° 64° (ENE) 05:52:10 ?
Hamsat 23 Oct 05:52:08 05:55:34 24° 94° (E) 05:59:00 145.90 MHz
Sapphire 23 Oct 06:30:16 06:34:41 25° 322° (NW) 06:39:07 437.095 MHz 1200 baud AX-25 AFSK
Uosat F 23 Oct 06:36:39 06:40:49 26° 298° (WNW) 06:44:57 435.120 FM
PCSat 23 Oct 06:54:11 06:57:55 19° 328° (NNW) 07:01:40 145.825 MHz
SO-67 23 Oct 06:54:45 06:56:34 14° 91° (E) 06:58:23 435.3500 MHz FM
JAS-2 23 Oct 06:57:43 07:05:21 71° 289° (WNW) 07:13:09 435.800 - 435.900 CW/SSB, 435.910 FM
AO-7 23 Oct 07:16:33 07:23:25 30° 309° (NW) 07:30:18 29.400 - 29.500 MHz
STRAND 1 23 Oct 07:21:57 07:26:45 40° 262° (W) 07:31:36 ?
Hamsat 23 Oct 07:27:48 07:31:36 34° 291° (WNW) 07:35:24 145.90 MHz
RS-15 23 Oct 07:49:58 08:01:03 75° 239° (WSW) 08:12:36 29.354 - 29.394 USB, Beacon 29.352 USB
HO-68 23 Oct 08:14:55 08:18:54 15° 86° (E) 08:22:51 435.675 MHz FM
SO-67 23 Oct 08:26:29 08:29:47 41° 288° (WNW) 08:33:02 435.3500 MHz FM
Saudisat 1A 23 Oct 08:29:34 08:33:56 75° 125° (SE) 08:38:21 436.775 MHz
MaSat-1 23 Oct 08:41:59 08:44:12 21° 50° (NE) 08:46:15 437.345 MHz
JAS-2 23 Oct 08:44:12 08:49:11 19° 309° (NW) 08:54:18 435.800 - 435.900 CW/SSB, 435.910 FM
Oscar 11 23 Oct 09:36:33 09:39:38 19° 92° (E) 09:42:41 145.825 FM, Beacon 2401.500 USB
HO-68 23 Oct 10:00:31 10:07:46 77° 106° (ESE) 10:14:58 435.675 MHz FM
RS-15 23 Oct 10:04:16 10:11:29 20° 261° (W) 10:18:55 29.354 - 29.394 USB, Beacon 29.352 USB
Sapphire 23 Oct 10:06:14 10:06:26 10° 14° (NNE) 10:06:37 437.095 MHz 1200 baud AX-25 AFSK
Saudisat 1A 23 Oct 10:10:35 10:14:00 21° 325° (NW) 10:17:26 436.775 MHz
MaSat-1 23 Oct 10:17:59 10:19:42 16° 253° (WSW) 10:21:19 437.345 MHz
ZACube-1 23 Oct 10:20:28 10:23:55 23° 93° (E) 10:27:17 437.345 MHz
PCSat 23 Oct 10:27:46 10:29:53 12° 21° (NNE) 10:32:00 145.825 MHz
UKube-1 23 Oct 10:28:33 10:32:55 66° 102° (ESE) 10:37:16 145.840 MHz, 145.915 MHz
FUNcube-1 23 Oct 11:05:07 11:09:25 66° 101° (ESE) 11:13:35 145.950 - 145.970 MHz USB
Oscar 11 23 Oct 11:11:55 11:16:04 47° 289° (WNW) 11:20:11 145.825 FM, Beacon 2401.500 USB
Sapphire 23 Oct 11:47:23 11:51:54 26° 39° (NE) 11:56:24 437.095 MHz 1200 baud AX-25 AFSK
HO-68 23 Oct 11:49:06 11:54:49 27° 306° (NW) 12:00:31 435.675 MHz FM
ZACube-1 23 Oct 11:56:29 12:00:27 37° 291° (WNW) 12:04:19 437.345 MHz
Oscar 19 23 Oct 11:59:30 12:03:04 19° 59° (ENE) 12:06:37 437.125 CW, 437.150 USB
JAS-1B 23 Oct 12:04:26 12:08:34 21° 57° (ENE) 12:12:38 435.800 - 435.900 CW/SSB
UKube-1 23 Oct 12:05:59 12:08:37 16° 301° (WNW) 12:11:15 145.840 MHz, 145.915 MHz
PCSat 23 Oct 12:09:59 12:14:59 36° 45° (NE) 12:19:58 145.825 MHz
AO-27 23 Oct 12:14:43 12:16:50 13° 53° (NE) 12:18:58 436.795 MHz FM
KITSAT 1 23 Oct 12:26:38 12:34:23 53° 115° (ESE) 12:42:10 435.175 FM
FUNcube-1 23 Oct 12:42:51 12:45:16 15° 300° (WNW) 12:47:39 145.950 - 145.970 MHz USB
Oscar 16 23 Oct 12:43:19 12:48:10 43° 68° (ENE) 12:53:02 437.025 USB, Beacon 2401.1428
AO-7 23 Oct 12:49:06 12:50:50 11° 30° (NNE) 12:52:34 29.400 - 29.500 MHz
AO-Echo 23 Oct 12:52:33 12:56:40 27° 63° (ENE) 13:00:55 ?
Uribyol 2 23 Oct 13:00:23 13:04:51 29° 63° (ENE) 13:09:19 436.500 FM
ITAMSAT 1 23 Oct 13:05:55 13:10:26 31° 64° (ENE) 13:14:58 435.822 SSB
Gurwin Techsat 1B 23 Oct 13:16:46 13:20:45 22° 60° (ENE) 13:24:45 435.225 FM
TMSAT-1 23 Oct 13:29:11 13:33:05 21° 59° (ENE) 13:37:00 436.925 FM
Sapphire 23 Oct 13:30:26 13:35:52 72° 240° (WSW) 13:41:16 437.095 MHz 1200 baud AX-25 AFSK
Oscar 19 23 Oct 13:36:45 13:41:53 70° 257° (WSW) 13:47:02 437.125 CW, 437.150 USB
SO-50 23 Oct 13:43:33 13:48:03 72° 124° (SE) 13:52:41 436.795 FM
AO-27 23 Oct 13:50:15 13:55:26 71° 72° (ENE) 14:00:40 436.795 MHz FM
JAS-1B 23 Oct 13:52:51 13:58:48 67° 257° (WSW) 14:04:28 435.800 - 435.900 CW/SSB
PCSat 23 Oct 13:53:23 13:58:32 45° 245° (WSW) 14:03:39 145.825 MHz
ISS 23 Oct 14:01:47 14:05:02 54° 148° (SSE) 14:08:19 145.800 FM
Oscar 10/S400 23 Oct 14:17:54 14:34:01 33° 153° (SSE) 14:58:41 145.825 - 145.975 CW/USB, Beacon 145.810 USB
KITSAT 1 23 Oct 14:22:13 14:29:58 47° 317° (NW) 14:37:45 435.175 FM
Oscar 16 23 Oct 14:23:17 14:27:40 28° 266° (W) 14:32:05 437.025 USB, Beacon 2401.1428
AO-Echo 23 Oct 14:30:36 14:35:14 43° 262° (W) 14:40:04 ?
AO-7 23 Oct 14:33:56 14:41:11 36° 54° (NE) 14:48:26 29.400 - 29.500 MHz
Uosat F 23 Oct 14:37:52 14:40:32 15° 55° (NE) 14:43:14 435.120 FM
Uribyol 2 23 Oct 14:39:11 14:44:09 44° 262° (W) 14:49:09 436.500 FM
ITAMSAT 1 23 Oct 14:44:53 14:49:47 41° 262° (W) 14:54:44 435.822 SSB
Gurwin Techsat 1B 23 Oct 14:55:02 15:00:17 63° 259° (WSW) 15:05:35 435.225 FM
TMSAT-1 23 Oct 15:07:17 15:12:32 65° 258° (WSW) 15:17:50 436.925 FM
Saudisat 1A 23 Oct 15:14:22 15:18:06 26° 38° (NE) 15:21:50 436.775 MHz
UOSAT-12 23 Oct 15:15:46 15:20:20 58° 122° (ESE) 15:24:59 437.025 FM, 437.400 FM
Sapphire 23 Oct 15:16:48 15:18:18 11° 259° (WSW) 15:19:49 437.095 MHz 1200 baud AX-25 AFSK
SO-50 23 Oct 15:25:24 15:29:05 23° 326° (NW) 15:32:52 436.795 FM
JAS-2 23 Oct 15:31:13 15:35:01 17° 49° (NE) 15:39:03 435.800 - 435.900 CW/SSB, 435.910 FM
AO-27 23 Oct 15:32:09 15:35:30 17° 271° (W) 15:38:53 436.795 MHz FM
ISS 23 Oct 15:38:36 15:41:49 44° 347° (NNW) 15:45:03 145.800 FM
Uosat F 23 Oct 16:13:34 16:18:36 88° 75° (ENE) 16:23:41 435.120 FM
KITSAT 1 23 Oct 16:21:36 16:27:37 22° 345° (NNW) 16:33:38 435.175 FM
AO-7 23 Oct 16:25:20 16:33:32 65° 255° (WSW) 16:41:47 29.400 - 29.500 MHz
Hamsat 23 Oct 16:48:27 16:51:57 26° 66° (ENE) 16:55:27 145.90 MHz
Saudisat 1A 23 Oct 16:53:38 16:57:59 56° 238° (WSW) 17:02:18 436.775 MHz
UOSAT-12 23 Oct 16:56:48 17:00:49 27° 323° (NW) 17:04:53 437.025 FM, 437.400 FM
SO-50 23 Oct 17:11:10 17:11:24 10° 350° (N) 17:11:37 436.795 FM
JAS-2 23 Oct 17:12:52 17:18:48 75° 72° (ENE) 17:25:37 435.800 - 435.900 CW/SSB, 435.910 FM
ISS 23 Oct 17:15:48 17:18:58 38° 7° (N) 17:22:07 145.800 FM
OPAL 23 Oct 17:47:04 17:51:50 44° 101° (E) 17:56:32 ?
Uosat F 23 Oct 17:55:52 17:58:05 13° 273° (W) 18:00:19 435.120 FM
KITSAT 1 23 Oct 18:20:20 18:26:21 22° 15° (NNE) 18:32:21 435.175 FM
Hamsat 23 Oct 18:24:00 18:27:48 32° 264° (W) 18:31:36 145.90 MHz
AO-7 23 Oct 18:24:23 18:27:58 13° 276° (W) 18:31:35 29.400 - 29.500 MHz
UOSAT-12 23 Oct 18:41:22 18:42:34 11° 346° (NNW) 18:43:46 437.025 FM, 437.400 FM
HO-68 23 Oct 18:47:29 18:52:16 20° 49° (NE) 18:57:03 435.675 MHz FM
ISS 23 Oct 18:52:32 18:55:53 83° 207° (SSW) 18:59:14 145.800 FM
SO-50 23 Oct 18:52:46 18:54:12 11° 15° (NNE) 18:55:38 436.795 FM
JAS-2 23 Oct 19:00:25 19:04:46 20° 275° (W) 19:09:30 435.800 - 435.900 CW/SSB, 435.910 FM
SO-67 23 Oct 19:01:28 19:04:54 84° 258° (WSW) 19:08:22 435.3500 MHz FM
OPAL 23 Oct 19:26:21 19:30:32 28° 300° (WNW) 19:34:41 ?
STRAND 1 23 Oct 19:29:01 19:34:06 55° 101° (E) 19:39:08 ?
UKube-1 23 Oct 19:54:10 19:55:34 11° 56° (NE) 19:56:58 145.840 MHz, 145.915 MHz
AO-40 23 Oct 19:56:09 23:13:44 25° 130° (SE) 00:36:59 Beacon 2401.320
RS-15 23 Oct 20:15:37 20:17:46 11° 92° (E) 20:19:54 29.354 - 29.394 USB, Beacon 29.352 USB
KITSAT 1 23 Oct 20:16:14 20:24:01 47° 42° (NE) 20:31:44 435.175 FM
UOSAT-12 23 Oct 20:24:19 20:24:57 10° 11° (NNE) 20:25:34 437.025 FM, 437.400 FM
ISS 23 Oct 20:30:06 20:32:10 15° 225° (SW) 20:34:13 145.800 FM
FUNcube-1 23 Oct 20:31:30 20:32:47 11° 57° (ENE) 20:34:03 145.950 - 145.970 MHz USB
HO-68 23 Oct 20:31:45 20:38:54 78° 70° (ENE) 20:46:06 435.675 MHz FM
SO-50 23 Oct 20:32:07 20:36:19 29° 38° (NE) 20:40:34 436.795 FM
Oscar 11 23 Oct 20:34:33 20:37:56 23° 64° (ENE) 20:41:20 145.825 FM, Beacon 2401.500 USB
STRAND 1 23 Oct 21:08:54 21:12:56 24° 299° (WNW) 21:16:57 ?
ZACube-1 23 Oct 21:19:29 21:23:28 30° 67° (ENE) 21:27:24 437.345 MHz
UKube-1 23 Oct 21:26:41 21:31:02 85° 74° (ENE) 21:35:26 145.840 MHz, 145.915 MHz
UOSAT-12 23 Oct 22:02:56 22:06:48 24° 35° (NE) 22:10:39 437.025 FM, 437.400 FM
FUNcube-1 23 Oct 22:03:49 22:08:24 78° 75° (ENE) 22:12:56 145.950 - 145.970 MHz USB
Oscar 11 23 Oct 22:09:48 22:13:54 41° 262° (W) 22:18:00 145.825 FM, Beacon 2401.500 USB
KITSAT 1 23 Oct 22:11:48 22:19:35 54° 245° (WSW) 22:27:19 435.175 FM
SO-50 23 Oct 22:12:27 22:17:11 56° 238° (WSW) 22:21:58 436.795 FM
RS-15 23 Oct 22:16:47 22:27:17 55° 115° (ESE) 22:37:45 29.354 - 29.394 USB, Beacon 29.352 USB
HO-68 23 Oct 22:21:55 22:27:21 23° 270° (W) 22:32:50 435.675 MHz FM
ZACube-1 23 Oct 22:55:38 22:59:47 33° 264° (W) 23:03:55 437.345 MHz
UKube-1 23 Oct 23:06:47 23:07:50 11° 272° (W) 23:08:54 145.840 MHz, 145.915 MHz
UOSAT-12 23 Oct 23:42:42 23:47:26 71° 236° (SW) 23:52:04 437.025 FM, 437.400 FM
FUNcube-1 23 Oct 23:43:16 23:45:18 13° 272° (W) 23:47:21 145.950 - 145.970 MHz USB
MaSat-1 23 Oct 23:56:20 00:00:15 43° 114° (ESE) 00:03:50 437.345 MHz
RS-15 24 Oct 00:29:01 00:39:42 56° 320° (NW) 00:50:31 29.354 - 29.394 USB, Beacon 29.352 USB
Oscar 16 24 Oct 00:54:12 00:55:48 11° 86° (E) 00:57:24 437.025 USB, Beacon 2401.1428
JAS-1B 24 Oct 01:31:55 01:37:31 28° 95° (E) 01:43:53 435.800 - 435.900 CW/SSB
MaSat-1 24 Oct 01:32:59 01:36:03 21° 309° (NW) 01:38:54 437.345 MHz
Oscar 19 24 Oct 01:45:31 01:50:07 33° 96° (E) 01:54:42 437.125 CW, 437.150 USB
AO-27 24 Oct 02:01:06 02:04:56 20° 91° (E) 02:08:45 436.795 MHz FM
Oscar 16 24 Oct 02:30:48 02:35:58 83° 104° (ESE) 02:41:05 437.025 USB, Beacon 2401.1428
AO-Echo 24 Oct 02:34:09 02:39:19 50° 99° (E) 02:44:29 ?
RS-15 24 Oct 02:45:36 02:55:03 32° 352° (N) 03:04:40 29.354 - 29.394 USB, Beacon 29.352 USB
Uribyol 2 24 Oct 02:48:31 02:53:39 53° 100° (E) 02:58:43 436.500 FM
ITAMSAT 1 24 Oct 02:54:16 02:59:26 56° 101° (E) 03:04:33 435.822 SSB
PCSat 24 Oct 02:57:23 03:00:17 15° 104° (ESE) 03:03:11 145.825 MHz
Gurwin Techsat 1B 24 Oct 03:08:11 03:13:14 42° 98° (E) 03:18:15 435.225 FM
TMSAT-1 24 Oct 03:20:06 03:25:07 40° 97° (E) 03:30:04 436.925 FM
JAS-1B 24 Oct 03:22:08 03:28:26 61° 290° (WNW) 03:35:54 435.800 - 435.900 CW/SSB
Oscar 19 24 Oct 03:24:50 03:29:29 36° 294° (WNW) 03:34:08 437.125 CW, 437.150 USB
OPAL 24 Oct 03:28:11 03:31:41 19° 56° (NE) 03:35:10 ?
AO-27 24 Oct 03:39:42 03:44:52 61° 289° (WNW) 03:50:00 436.795 MHz FM
Oscar 16 24 Oct 04:11:33 04:14:40 16° 303° (WNW) 04:17:46 437.025 USB, Beacon 2401.1428
AO-Echo 24 Oct 04:13:26 04:17:48 27° 297° (WNW) 04:22:10 ?
Sapphire 24 Oct 04:14:59 04:20:15 57° 117° (ESE) 04:25:35 437.095 MHz 1200 baud AX-25 AFSK
Uosat F 24 Oct 04:18:57 04:22:49 22° 92° (E) 04:26:40 435.120 FM
JAS-2 24 Oct 04:21:10 04:23:55 12° 80° (E) 04:26:40 435.800 - 435.900 CW/SSB, 435.910 FM
AO-7 24 Oct 04:23:29 04:31:04 37° 97° (E) 04:38:36 29.400 - 29.500 MHz
Uribyol 2 24 Oct 04:28:38 04:32:48 25° 299° (WNW) 04:36:56 436.500 FM
ITAMSAT 1 24 Oct 04:34:28 04:38:33 24° 299° (WNW) 04:42:37 435.822 SSB
PCSat 24 Oct 04:37:28 04:42:54 89° 122° (ESE) 04:48:22 145.825 MHz
Gurwin Techsat 1B 24 Oct 04:48:26 04:53:04 31° 296° (WNW) 04:57:40 435.225 FM
TMSAT-1 24 Oct 05:00:15 05:04:55 32° 296° (WNW) 05:09:34 436.925 FM
RS-15 24 Oct 05:01:00 05:11:13 40° 27° (NNE) 05:21:43 29.354 - 29.394 USB, Beacon 29.352 USB
OPAL 24 Oct 05:04:53 05:10:02 74° 254° (WSW) 05:15:09 ?
STRAND 1 24 Oct 05:11:12 05:14:31 18° 57° (ENE) 05:17:51 ?
JAS-1B 24 Oct 05:15:22 05:18:05 13° 309° (NW) 05:20:56 435.800 - 435.900 CW/SSB
AO-27 24 Oct 05:22:10 05:23:21 11° 309° (NW) 05:24:31 436.795 MHz FM
